Location: Grevenbroich
(51.0902°N, 6.5859°E)
Time: 22:30:01
(UTC+01:00)

ISS - Visible Passes

Search period start: 09 February 2026 00:00
Search period end: 19 February 2026 00:00
Orbit: 414 x 429 km, 51.6° (Epoch: 9 February)

Date Brightness Start Highest point End Pass type
(mag) Time Alt. Az. Time Alt. Az. Time Alt. Az.
11 Feb -0.7 07:07:42 10° S 07:09:29 14° SE 07:11:16 10° ESE visible
13 Feb -1.7 07:08:59 10° SSW 07:11:54 28° SSE 07:14:50 10° E visible
14 Feb -1.3 06:22:27 10° SSW 06:25:00 20° SE 06:27:32 10° E visible
15 Feb -1.0 05:36:22 10° S 05:38:07 14° SE 05:40:00 10° ESE visible
15 Feb -3.1 07:11:08 10° SW 07:14:25 54° SSE 07:17:41 10° E visible
16 Feb -2.6 06:24:33 12° SW 06:27:24 40° SSE 06:30:34 10° E visible
17 Feb -2.2 05:39:35 26° S 05:40:24 29° SSE 05:43:21 10° E visible
18 Feb -1.2 04:54:29 18° ESE 04:54:29 18° ESE 04:56:01 10° E visible
18 Feb -3.6 06:27:29 18° WSW 06:29:53 71° SSE 06:33:13 10° E visible
